Weather History for Sturgis, MI

Change the Weather History Date:

Saturday, March 16, 2013

  Actual Average (KHAI) Record (KHAI)
Temperature  
Mean Temperature 32 °F -  
Max Temperature 37 °F 45 °F 76 °F (2012)
Min Temperature 26 °F 25 °F 3 °F (1993)
Degree Days  
Heating Degree Days 34    
Moisture  
Dew Point 29 °F    
Average Humidity 91    
Maximum Humidity 100    
Minimum Humidity 80    
Precipitation  
Precipitation 0.00 in - - ()
Sea Level Pressure  
Sea Level Pressure 29.83 in    
Wind  
Wind Speed 7 mph (NNE)    
Max Wind Speed 14 mph    
Max Gust Speed 17 mph    
Visibility 8 miles    
Events Rain , Snow    
Averages and records for this station are not official NWS values.
T = Trace of Precipitation, MM = Missing Value Source: NWS Daily Summary

Daily Weather History Graph

Daily Weather History Graph

Search for Another Location

Airport:

Trip Planner

Search our weather history database for the weather conditions in past years. The results will help you decide how hot, cold, wet, or windy it might be!

Date:

Astronomy

Mar. 16, 2013 Rise Set
Actual Time 7:51 AM EDT 7:49 PM EDT
Civil Twilight 7:23 AM EDT 8:17 PM EDT
Nautical Twilight 6:51 AM EDT 8:49 PM EDT
Astronomical Twilight 6:18 AM EDT 9:22 PM EDT
Moon 10:16 AM EDT (3/16) 12:06 AM EDT (3/16)
Length of Visible Light 12h 53m
Length of Day
11h 58m
Waxing Crescent, 23% of the Moon is Illuminated
Mar 16
Waxing Crescent
Mar 19
First Quarter
Mar 27
Full
Apr 3
Last Quarter
Apr 10
New

Hourly Weather History & Observations

Time (EDT) Temp. Windchill Dew Point Humidity Pressure Visibility Wind Dir Wind Speed Gust Speed Precip Events Conditions
12:15 AM 37.4 °F - 35.6 °F 93% 29.79 in 2.0 mi Calm Calm - N/A   Light Drizzle
12:35 AM 37.4 °F - 35.6 °F 93% 29.78 in 2.0 mi Calm Calm - N/A Rain Light Rain
12:54 AM 37.4 °F 33.8 °F 35.6 °F 93% 29.78 in 2.0 mi NE 4.6 mph - N/A   Overcast
1:15 AM 35.6 °F 28.6 °F 35.6 °F 100% 29.76 in 2.0 mi ENE 9.2 mph - N/A   Overcast
1:35 AM 35.6 °F 29.9 °F 35.6 °F 100% 29.74 in 2.0 mi ENE 6.9 mph - N/A   Overcast
1:54 AM 35.6 °F 29.2 °F 35.6 °F 100% 29.73 in 1.8 mi ENE 8.1 mph - N/A   Overcast
2:15 AM 35.6 °F 29.2 °F 35.6 °F 100% 29.72 in 1.5 mi ENE 8.1 mph - N/A   Overcast
2:35 AM 35.6 °F 28.6 °F 35.6 °F 100% 29.71 in 1.2 mi ENE 9.2 mph - N/A   Overcast
2:55 AM 35.6 °F 28.0 °F 35.6 °F 100% 29.72 in 1.2 mi ENE 10.4 mph - N/A   Overcast
3:15 AM 35.6 °F 28.0 °F 35.6 °F 100% 29.71 in 1.2 mi East 10.4 mph - N/A   Overcast
3:34 AM 35.6 °F 28.6 °F 35.6 °F 100% 29.71 in 1.5 mi East 9.2 mph - N/A   Overcast
3:55 AM 35.6 °F 28.6 °F 33.8 °F 93% 29.71 in 1.8 mi ENE 9.2 mph - N/A Snow Light Snow
4:15 AM 35.6 °F 28.0 °F 33.8 °F 93% 29.71 in 2.0 mi ENE 10.4 mph - N/A   Overcast
4:34 AM 33.8 °F 25.8 °F 33.8 °F 100% 29.70 in 2.5 mi East 10.4 mph - N/A   Overcast
4:55 AM 33.8 °F 24.3 °F 33.8 °F 100% 29.68 in 3.0 mi East 13.8 mph - N/A   Overcast
5:14 AM 33.8 °F 25.3 °F 33.8 °F 100% 29.67 in 3.0 mi East 11.5 mph - N/A   Overcast
5:35 AM 33.8 °F 25.3 °F 33.8 °F 100% 29.67 in 4.0 mi East 11.5 mph - N/A   Overcast
5:55 AM 33.8 °F 24.8 °F 33.8 °F 100% 29.67 in 5.0 mi East 12.7 mph 17.3 mph N/A   Overcast
6:14 AM 33.8 °F 25.3 °F 33.8 °F 100% 29.68 in 5.0 mi ENE 11.5 mph - N/A   Overcast
6:35 AM 33.8 °F 25.8 °F 33.8 °F 100% 29.68 in 5.0 mi East 10.4 mph - N/A   Overcast
6:55 AM 33.8 °F 26.4 °F 33.8 °F 100% 29.69 in 5.0 mi East 9.2 mph - N/A   Overcast
7:14 AM 33.8 °F 25.8 °F 33.8 °F 100% 29.70 in 7.0 mi East 10.4 mph - N/A   Overcast
7:35 AM 33.8 °F 25.8 °F 33.8 °F 100% 29.71 in 5.0 mi ENE 10.4 mph - N/A   Overcast
7:55 AM 33.8 °F 26.4 °F 32.0 °F 93% 29.71 in 7.0 mi East 9.2 mph - N/A   Overcast
8:14 AM 33.8 °F 25.3 °F 32.0 °F 93% 29.70 in 7.0 mi ENE 11.5 mph - N/A   Overcast
8:35 AM 33.8 °F 26.4 °F 32.0 °F 93% 29.71 in 10.0 mi East 9.2 mph - N/A   Overcast
8:55 AM 32.0 °F 23.6 °F 30.2 °F 93% 29.72 in 10.0 mi East 10.4 mph - N/A   Overcast
9:14 AM 32.0 °F 26.4 °F 30.2 °F 93% 29.72 in 10.0 mi ENE 5.8 mph - N/A   Overcast
9:35 AM 32.0 °F 26.4 °F 30.2 °F 93% 29.73 in 10.0 mi ENE 5.8 mph - N/A   Overcast
9:55 AM 32.0 °F 25.6 °F 30.2 °F 93% 29.75 in 10.0 mi NNE 6.9 mph - N/A   Overcast
10:14 AM 30.2 °F 21.3 °F 30.2 °F 100% 29.75 in 7.0 mi NNE 10.4 mph - N/A   Overcast
10:35 AM 30.2 °F 21.3 °F 28.4 °F 93% 29.75 in 10.0 mi NE 10.4 mph - N/A   Overcast
10:55 AM 30.2 °F 23.4 °F 28.4 °F 93% 29.76 in 7.0 mi NE 6.9 mph - N/A   Overcast
11:14 AM 30.2 °F 21.9 °F 28.4 °F 93% 29.78 in 10.0 mi NE 9.2 mph - N/A   Overcast
11:35 AM 30.2 °F 23.4 °F 28.4 °F 93% 29.79 in 10.0 mi NE 6.9 mph - N/A   Overcast
11:54 AM 30.2 °F 23.4 °F 28.4 °F 93% 29.80 in 10.0 mi NNE 6.9 mph - N/A   Overcast
12:15 PM 30.2 °F 20.8 °F 28.4 °F 93% 29.82 in 10.0 mi NE 11.5 mph - N/A   Overcast
12:35 PM 30.2 °F 21.9 °F 28.4 °F 93% 29.83 in 10.0 mi NNE 9.2 mph - N/A   Overcast
12:54 PM 30.2 °F 21.3 °F 28.4 °F 93% 29.84 in 7.0 mi NNE 10.4 mph - N/A   Overcast
1:15 PM 30.2 °F 20.2 °F 28.4 °F 93% 29.85 in 10.0 mi North 12.7 mph - N/A   Overcast
1:35 PM 28.4 °F 19.1 °F 28.4 °F 100% 29.86 in 7.0 mi NNE 10.4 mph 16.1 mph N/A   Overcast
1:54 PM 28.4 °F 19.7 °F 26.6 °F 93% 29.87 in 10.0 mi North 9.2 mph 16.1 mph N/A   Overcast
2:15 PM 28.4 °F 19.1 °F 26.6 °F 93% 29.87 in 10.0 mi North 10.4 mph - N/A   Overcast
2:35 PM 28.4 °F 20.4 °F 26.6 °F 93% 29.88 in 10.0 mi North 8.1 mph - N/A   Overcast
2:54 PM 28.4 °F 19.1 °F 26.6 °F 93% 29.89 in 10.0 mi NNE 10.4 mph - N/A   Overcast
3:15 PM 30.2 °F 21.9 °F 26.6 °F 86% 29.89 in 10.0 mi North 9.2 mph - N/A   Overcast
3:34 PM 30.2 °F 22.6 °F 26.6 °F 86% 29.90 in 10.0 mi North 8.1 mph - N/A   Overcast
3:55 PM 30.2 °F 21.3 °F 26.6 °F 86% 29.90 in 10.0 mi NNE 10.4 mph - N/A   Overcast
4:15 PM 30.2 °F 21.3 °F 26.6 °F 86% 29.91 in 10.0 mi North 10.4 mph - N/A   Overcast
4:34 PM 30.2 °F 22.6 °F 26.6 °F 86% 29.91 in 10.0 mi North 8.1 mph - N/A   Overcast
4:55 PM 30.2 °F 21.9 °F 26.6 °F 86% 29.92 in 10.0 mi North 9.2 mph - N/A   Overcast
5:15 PM 30.2 °F 24.3 °F 26.6 °F 86% 29.93 in 10.0 mi NNW 5.8 mph - N/A   Overcast
5:34 PM 30.2 °F 23.4 °F 26.6 °F 86% 29.94 in 10.0 mi NNW 6.9 mph - N/A   Overcast
5:55 PM 30.2 °F 23.4 °F 26.6 °F 86% 29.95 in 10.0 mi North 6.9 mph - N/A   Overcast
6:15 PM 30.2 °F 22.6 °F 26.6 °F 86% 29.95 in 10.0 mi North 8.1 mph - N/A   Overcast
6:34 PM 30.2 °F 24.3 °F 26.6 °F 86% 29.96 in 10.0 mi NNW 5.8 mph - N/A   Overcast
6:55 PM 30.2 °F 23.4 °F 24.8 °F 80% 29.97 in 10.0 mi North 6.9 mph - N/A   Overcast
7:15 PM 30.2 °F 24.3 °F 24.8 °F 80% 29.97 in 10.0 mi NNE 5.8 mph - N/A   Overcast
7:34 PM 30.2 °F - 24.8 °F 80% 29.97 in 10.0 mi Calm Calm - N/A   Overcast
7:55 PM 30.2 °F 26.7 °F 24.8 °F 80% 29.97 in 10.0 mi NW 3.5 mph - N/A   Overcast
8:14 PM 30.2 °F - 24.8 °F 80% 29.98 in 10.0 mi Calm Calm - N/A   Overcast
8:34 PM 30.2 °F - 24.8 °F 80% 29.99 in 10.0 mi Calm Calm - N/A   Overcast
8:55 PM 30.2 °F - 24.8 °F 80% 29.99 in 10.0 mi Calm Calm - N/A   Overcast
9:14 PM 30.2 °F - 24.8 °F 80% 29.99 in 10.0 mi Calm Calm - N/A   Overcast
9:34 PM 30.2 °F 24.3 °F 26.6 °F 86% 30.00 in 10.0 mi West 5.8 mph - N/A   Overcast
9:55 PM 30.2 °F 23.4 °F 24.8 °F 80% 30.01 in 10.0 mi WNW 6.9 mph - N/A   Overcast
10:14 PM 30.2 °F 21.9 °F 24.8 °F 80% 30.02 in 10.0 mi NW 9.2 mph - N/A   Overcast
10:35 PM 28.4 °F 19.1 °F 23.0 °F 80% 30.03 in 10.0 mi WNW 10.4 mph - N/A   Overcast
10:55 PM 28.4 °F 19.7 °F 23.0 °F 80% 30.04 in 10.0 mi NW 9.2 mph - N/A   Overcast
11:14 PM 28.4 °F 19.7 °F 23.0 °F 80% 30.05 in 10.0 mi NW 9.2 mph 16.1 mph N/A   Mostly Cloudy
11:35 PM 26.6 °F 17.5 °F 21.2 °F 80% 30.05 in 10.0 mi NW 9.2 mph - N/A   Scattered Clouds
11:55 PM 26.6 °F 19.1 °F 21.2 °F 80% 30.06 in 10.0 mi NW 6.9 mph - N/A   Clear